User: anonymous   Login
Location: Blue Mountain Vista Observatory
(40.6992°N, 75.9422°W)
Time: 21:57:06
(UTC-05:00)
Language:

CZ-4C R/B - Orbit

View from above orbital plane
View from above orbital plane
View from above satellite
View from above satellite

Ground track
Ground track

The orbit data is extracted from the following two-line orbital elements,

1 36416U 10009D   18053.29338763 -.00000071 +00000-0 +16551-4 0  9999
2 36416 063.4372 313.2942 0411702 355.8060 003.9564 13.69530551398468
Epoch (UTC): 22 February 2018 07:02:28
Eccentricity: 0.0411702
inclination: 63.4372°
perigee height: 697 km
apogee height: 1305 km
right ascension of ascending node: 313.2942°
argument of perigee: 355.8060°
revolutions per day: 13.69530551
mean anomaly at epoch: 3.9564°
orbit number at epoch: 39846

The dashed part of the orbit path shows where the satellite is in the earth's shadow,  

DLR